[[{"header":{"parameterUnit":"m.s-1","parameterCategory":1,"la1":30.2991,"la2":30.254,"lo1":-89.0895,"lo2":-89.0444,"dy":0.0017,"dx":0.0017,"nx":28,"ny":28,"refTime":"2023-09-23T09:00:00:Z","depth":0,"parameterNumber":2,"parameterNumberName":"U-component_of_WINDS"},"data":[0,0,0,0,0,0,0,0,0,0,0,0,0,0,0,0,0,0,0,0,0,0,0,0,0,0,0,0,0,0,0,0,0,0,0,0,0,0,0,0,0,0,0,0,0,0,0,0,0,0,0,0,0,0,0,0,0,0,-1.0878,-1.0878,0,-1.085,-1.085,-1.0849,-1.0768,-1.0767,-1.0765,-1.0763,-1.0736,-1.0737,-1.0738,0,0,0,0,0,0,0,0,0,0,0,0,0,-1.0866,-1.0866,-1.0878,-1.0878,-1.0878,-1.085,-1.085,-1.0849,-1.0769,-1.0767,-1.0764,-1.0762,-1.0736,-1.0737,-1.0738,0,0,0,0,0,0,0,0,0,0,0,0,0,-1.0858,-1.0867,-1.0878,-1.0834,-1.083,-1.085,-1.0849,-1.0849,-1.0769,-1.0766,-1.0764,-1.0761,-1.0736,-1.0737,-1.0738,-1.08,0,0,-1.0743,-1.0743,0,0,0,0,0,0,0,0,-1.0858,-1.0858,-1.0841,-1.0837,-1.0832,-1.081,-1.0835,-1.0833,-1.077,-1.0792,-1.0763,-1.076,-1.0763,-1.0762,-1.0763,-1.0799,-1.0797,-1.0743,-1.0744,-1.0744,-1.0745,0,0,0,0,0,0,0,-1.0859,-1.0859,-1.0867,-1.0841,-1.0836,-1.0817,-1.0812,-1.0834,-1.0793,-1.079,-1.0784,-1.0782,-1.076,-1.0761,-1.0761,-1.0797,-1.0743,-1.0744,-1.0745,-1.0745,-1.0883,-1.0886,0,0,0,0,0,0,-1.0866,-1.086,-1.0868,-1.0866,-1.0839,-1.0819,-1.0814,-1.082,-1.0792,-1.0786,-1.0784,-1.0778,-1.076,-1.076,-1.076,-1.0831,-1.0744,-1.0746,-1.0746,-1.088,-1.0884,-1.0887,0,0,0,0,0,0,-1.0866,-1.0867,-1.0869,-1.0862,-1.086,-1.0822,-1.0829,-1.0821,-1.0822,-1.0788,-1.078,-1.0793,-1.0758,-1.0758,-1.0791,-1.0829,-1.0746,-1.0747,-1.0877,-1.0882,-1.0885,-1.0973,0,0,0,0,0,0,-1.0866,-1.0868,-1.089,-1.0863,-1.0861,-1.09,-1.0831,-1.0822,-1.0824,-1.0816,-1.0794,-1.0788,-1.0756,-1.0789,-1.0792,-1.0829,-1.0748,-1.0874,-1.0879,-1.0884,-1.0966,-1.0979,-1.0991,0,0,0,0,0,-1.0865,-1.0916,-1.0891,-1.0893,-1.0888,-1.0902,-1.0901,-1.0863,-1.0827,-1.085,-1.0828,-1.0788,-1.0824,-1.0793,-1.0796,-1.0834,-1.0871,-1.0878,-1.0884,-1.0961,-1.0977,-1.099,0,0,0,0,0,0,-1.0949,-1.0911,-1.0884,-1.0927,-1.0918,-1.0888,-1.0915,-1.0881,-1.0883,-1.0875,-1.0829,-1.0825,-1.0864,-1.0852,-1.0818,-1.0893,-1.0841,-1.0848,-1.0899,-1.0914,-1.0926,-1.0928,-1.075,0,0,0,0,0,-1.0972,-1.0986,-1.0953,-1.0994,-1.0991,-1.0954,-1.0959,-1.093,-1.092,-1.0916,-1.0896,-1.0889,-1.0898,-1.0905,-1.0912,-1.0964,-1.0959,-1.0992,-1.1004,-1.1014,-1.1021,-1.1049,-1.1064,-1.0908,-1.0908,-1.0908,0,0,-1.1021,-1.1002,-1.1014,-1.101,-1.1,-1.1016,-1.0952,-1.0971,-1.0983,-1.0919,-1.0948,-1.0934,-1.0922,-1.0965,-1.0983,-1.0957,-1.1063,-1.1022,-1.1031,-1.1032,-1.1057,-1.1072,-1.1085,-1.0912,-1.0911,-1.0911,0,0,-1.1118,-1.1104,-1.1137,-1.1129,-1.1114,-1.109,-1.1098,-1.1073,-1.1061,-1.109,-1.1042,-1.1056,-1.1073,-1.1067,-1.1066,-1.1162,-1.1125,-1.1165,-1.1229,-1.1257,-1.1269,-1.128,-1.1315,-1.1328,-1.1172,-1.1172,-1.1173,0,-1.118,-1.1201,-1.1159,-1.1182,-1.1182,-1.1125,-1.1159,-1.1152,-1.1141,-1.1143,-1.1114,-1.1134,-1.1122,-1.1163,-1.1187,-1.1188,-1.1196,-1.1167,-1.1271,-1.1281,-1.129,-1.1323,-1.1336,-1.1177,-1.1177,-1.1176,-1.1176,0,-1.1279,-1.1295,-1.1324,-1.1314,-1.1317,-1.1346,-1.1309,-1.1318,-1.1289,-1.1268,-1.1299,-1.1283,-1.1285,-1.1293,-1.1266,-1.1331,-1.1315,-1.1279,-1.1226,-1.1311,-1.1341,-1.1353,-1.1184,-1.1183,-1.1181,-1.118,0,0,-1.1427,-1.1394,-1.1405,-1.14,-1.1381,-1.1392,-1.1419,-1.1421,-1.143,-1.1425,-1.1446,-1.1462,-1.1429,-1.1428,-1.1399,-1.1424,-1.1502,-1.1384,-1.1383,-1.1407,-1.1574,-1.1601,-1.1616,-1.1477,-1.148,-1.1481,-1.1575,0,-1.1519,-1.1561,-1.1524,-1.1574,-1.1588,-1.1534,-1.1557,-1.1549,-1.153,-1.1541,-1.152,-1.1533,-1.1487,-1.1486,-1.1508,-1.1488,-1.1534,-1.148,-1.1498,-1.1499,-1.1503,-1.1632,-1.1661,-1.175,-1.1586,-1.1588,-1.159,0,-1.1631,-1.163,-1.1681,-1.1659,-1.1664,-1.1685,-1.1685,-1.1695,-1.1684,-1.1669,-1.1669,-1.1634,-1.1659,-1.1608,-1.1643,-1.1607,-1.1612,-1.1604,-1.1606,-1.1607,-1.155,-1.1637,-1.1777,-1.1791,-1.1608,-1.1606,-1.1605,0,-1.1735,-1.1747,-1.1779,-1.1776,-1.1751,-1.1767,-1.1758,-1.1744,-1.1748,-1.1748,-1.1751,-1.1754,-1.1756,-1.176,-1.1728,-1.1693,-1.1767,-1.1713,-1.1756,-1.1757,-1.1774,-1.1774,-1.1919,-1.1777,-1.1777,-1.1777,-1.1777,0,-1.1841,-1.1874,-1.1825,-1.1845,-1.1881,-1.1839,-1.1877,-1.1862,-1.185,-1.1867,-1.1821,-1.1838,-1.1794,-1.1807,-1.1782,-1.1815,-1.1816,-1.1805,-1.1798,-1.181,-1.1811,-1.1813,-1.1806,-1.178,-1.178,-1.1779,-1.1778,0,-1.1963,-1.1931,-1.1962,-1.1936,-1.193,-1.1958,-1.1936,-1.1954,-1.1932,-1.1954,-1.1957,-1.1924,-1.1937,-1.1905,-1.1913,-1.1896,-1.1944,-1.1927,-1.1948,-1.1943,-1.1988,-1.1985,-1.2139,-1.2158,-1.2005,-1.2006,-1.2008,0,-1.2033,-1.2057,-1.2033,-1.2041,-1.2034,-1.2047,-1.205,-1.2011,-1.2017,-1.2007,-1.2027,-1.2035,-1.204,-1.2064,-1.2041,-1.2047,-1.203,-1.2084,-1.2031,-1.2042,-1.2032,-1.2031,-1.2034,-1.2095,-1.2097,-1.2099,-1.21,0,-1.216,-1.2144,-1.215,-1.2153,-1.2158,-1.2158,-1.2155,-1.2164,-1.2121,-1.2131,-1.2143,-1.2147,-1.2155,-1.2165,-1.2167,-1.2158,-1.2123,-1.2117,-1.2127,-1.2139,-1.215,-1.2146,-1.1978,-1.2113,-1.2112,-1.2111,-1.211,-1.211,-1.2259,-1.2278,-1.2265,-1.2274,-1.2268,-1.2266,-1.2281,-1.2262,-1.2271,-1.2274,-1.2251,-1.2269,-1.2258,-1.2256,-1.2251,-1.2265,-1.2241,-1.2256,-1.226,-1.2265,-1.2272,-1.2148,-1.2266,-1.2265,-1.2265,-1.2264,-1.2264,0,-1.2384,-1.2373,-1.2383,-1.2379,-1.2387,-1.2352,-1.2347,-1.2357,-1.2372,-1.2366,-1.2371,-1.2386,-1.2396,-1.2374,-1.2381,-1.2396,-1.2381,-1.24,-1.2398,-1.2397,-1.2293,-1.2284,-1.2412,-1.2412,-1.2412,-1.2412,-1.2412,-1.2412,-1.2451,-1.2482,-1.2464,-1.2493,-1.2481,-1.2498,-1.2498,-1.2497,-1.2491,-1.2509,-1.2517,-1.2502,-1.249,-1.2496,-1.2503,-1.2497,-1.2502,-1.2527,-1.2515,-1.2419,-1.2404,-1.239,-1.2381,-1.2528,-1.2528,-1.2617,-1.2618,-1.2619]},{"header":{"parameterUnit":"m.s-1","parameterCategory":1,"la1":30.2991,"la2":30.254,"lo1":-89.0895,"lo2":-89.0444,"dy":0.0017,"dx":0.0017,"nx":28,"ny":28,"refTime":"2023-09-23T09:00:00:Z","depth":0,"parameterNumber":3,"parameterNumberName":"V-component_of_WINDS"},"data":[0,0,0,0,0,0,0,0,0,0,0,0,0,0,0,0,0,0,0,0,0,0,0,0,0,0,0,0,0,0,0,0,0,0,0,0,0,0,0,0,0,0,0,0,0,0,0,0,0,0,0,0,0,0,0,0,0,0,0.2219,0.2219,0,0.2219,0.2219,0.2219,0.2226,0.2226,0.2227,0.2227,0.2227,0.2226,0.2226,0,0,0,0,0,0,0,0,0,0,0,0,0,0.2224,0.2224,0.2219,0.2219,0.2219,0.2219,0.2219,0.2219,0.2226,0.2226,0.2227,0.2227,0.2227,0.2226,0.2226,0,0,0,0,0,0,0,0,0,0,0,0,0,0.2223,0.2224,0.2219,0.2223,0.2223,0.2219,0.2219,0.2219,0.2226,0.2226,0.2227,0.2227,0.2227,0.2226,0.2226,0.2219,0,0,0.2225,0.2225,0,0,0,0,0,0,0,0,0.2223,0.2223,0.2222,0.2222,0.2223,0.2223,0.2221,0.2219,0.2226,0.2225,0.2227,0.2227,0.2225,0.2225,0.2224,0.2219,0.2219,0.2225,0.2225,0.2225,0.2225,0,0,0,0,0,0,0,0.2223,0.2223,0.2219,0.2222,0.2222,0.2224,0.2224,0.222,0.2223,0.2225,0.2226,0.2225,0.2225,0.2225,0.2224,0.2219,0.2225,0.2225,0.2225,0.2225,0.2206,0.2205,0,0,0,0,0,0,0.2223,0.2223,0.2219,0.2219,0.2224,0.2224,0.2224,0.2222,0.2223,0.2224,0.2225,0.2226,0.2225,0.2225,0.2224,0.2215,0.2225,0.2225,0.2225,0.2206,0.2205,0.2205,0,0,0,0,0,0,0.2223,0.2222,0.2219,0.2221,0.2221,0.2223,0.2222,0.2222,0.2222,0.2224,0.2224,0.2224,0.2225,0.2225,0.222,0.2215,0.2225,0.2224,0.2206,0.2206,0.2205,0.2196,0,0,0,0,0,0,0.2223,0.2222,0.222,0.2221,0.2221,0.2215,0.2222,0.2222,0.2221,0.2222,0.2223,0.2223,0.2225,0.222,0.222,0.2215,0.2224,0.2207,0.2206,0.2205,0.2197,0.2195,0.2194,0,0,0,0,0,0.2223,0.2218,0.222,0.2219,0.2217,0.2214,0.2214,0.2217,0.2221,0.2218,0.2219,0.2223,0.2216,0.222,0.2219,0.2214,0.2207,0.2206,0.2205,0.2197,0.2195,0.2194,0,0,0,0,0,0,0.2216,0.2218,0.222,0.2215,0.2214,0.2216,0.2212,0.2215,0.2214,0.2214,0.2218,0.2218,0.2212,0.2213,0.2217,0.2206,0.2212,0.2211,0.2206,0.2204,0.2203,0.2202,0.2224,0,0,0,0,0,0.2214,0.2211,0.2213,0.2208,0.2207,0.221,0.2209,0.2211,0.221,0.221,0.2211,0.221,0.2208,0.2206,0.2204,0.2197,0.2196,0.2193,0.2191,0.219,0.2189,0.2184,0.2182,0.2203,0.2203,0.2203,0,0,0.2209,0.221,0.2208,0.2206,0.2206,0.2203,0.221,0.2206,0.2204,0.221,0.2205,0.2205,0.2205,0.2198,0.2195,0.2198,0.2183,0.2189,0.2188,0.2188,0.2183,0.2181,0.2179,0.2202,0.2202,0.2202,0,0,0.2199,0.22,0.2195,0.2195,0.2194,0.2195,0.2194,0.2195,0.2195,0.219,0.2194,0.2191,0.2187,0.2186,0.2185,0.2173,0.2176,0.2173,0.2165,0.216,0.2158,0.2157,0.2151,0.2149,0.2172,0.2172,0.2172,0,0.2194,0.2189,0.2192,0.2188,0.2187,0.2192,0.2186,0.2186,0.2185,0.2184,0.2187,0.2181,0.2181,0.2174,0.2171,0.217,0.2168,0.2172,0.2158,0.2157,0.2155,0.215,0.2148,0.2171,0.2171,0.2171,0.2171,0,0.2181,0.2178,0.2174,0.2172,0.2171,0.2166,0.2168,0.2166,0.2168,0.2169,0.2163,0.2163,0.2161,0.2159,0.2162,0.2152,0.2153,0.2158,0.2163,0.2153,0.2148,0.2146,0.217,0.2171,0.2171,0.2171,0,0,0.2167,0.2166,0.2165,0.2163,0.2163,0.216,0.2155,0.2152,0.215,0.2149,0.2144,0.214,0.2143,0.2142,0.2144,0.214,0.2129,0.2144,0.2144,0.214,0.2116,0.2112,0.211,0.2131,0.2131,0.2131,0.2116,0,0.2156,0.2148,0.215,0.2142,0.2138,0.2142,0.2138,0.2137,0.2137,0.2134,0.2134,0.2131,0.2136,0.2135,0.2131,0.2131,0.2124,0.2132,0.2126,0.2126,0.2125,0.2108,0.2104,0.209,0.2114,0.2114,0.2114,0,0.2143,0.214,0.2131,0.213,0.2128,0.2124,0.2121,0.2118,0.2116,0.2117,0.2115,0.2118,0.2112,0.2119,0.211,0.2116,0.2114,0.2113,0.2113,0.2111,0.2118,0.2105,0.2086,0.2084,0.2111,0.2111,0.2111,0,0.2131,0.2126,0.212,0.2118,0.2117,0.2114,0.2113,0.2112,0.211,0.2107,0.2105,0.2102,0.21,0.2097,0.2098,0.2103,0.2089,0.2096,0.2089,0.2089,0.2085,0.2085,0.2064,0.2085,0.2085,0.2085,0.2085,0,0.2119,0.2113,0.2114,0.211,0.2103,0.2106,0.2099,0.2098,0.2097,0.2092,0.2096,0.2092,0.2094,0.209,0.2091,0.2083,0.2083,0.2082,0.2082,0.2081,0.2081,0.2079,0.2079,0.2085,0.2085,0.2085,0.2085,0,0.2105,0.2106,0.2099,0.2098,0.2097,0.2092,0.2091,0.2087,0.2087,0.2081,0.208,0.2081,0.2075,0.2077,0.2071,0.2072,0.2061,0.2064,0.2062,0.2062,0.2054,0.2054,0.203,0.2026,0.2051,0.2051,0.2051,0,0.2096,0.2092,0.209,0.2087,0.2085,0.2081,0.2078,0.208,0.2077,0.2074,0.207,0.2065,0.2061,0.2052,0.2052,0.2048,0.2049,0.2041,0.2048,0.2046,0.2047,0.2047,0.2045,0.2039,0.2039,0.2038,0.2038,0,0.208,0.2081,0.2077,0.2072,0.2069,0.2066,0.2063,0.206,0.2062,0.2058,0.2053,0.205,0.2043,0.2038,0.2033,0.2032,0.2035,0.2036,0.2034,0.2032,0.203,0.203,0.2056,0.2036,0.2036,0.2037,0.2037,0.2037,0.2068,0.2064,0.2061,0.2056,0.2054,0.2051,0.2046,0.2046,0.2041,0.2036,0.2037,0.2031,0.2028,0.2022,0.202,0.2014,0.2017,0.2015,0.2014,0.2013,0.2011,0.2032,0.2014,0.2014,0.2014,0.2014,0.2014,0,0.2051,0.205,0.2045,0.204,0.2036,0.2039,0.2036,0.2032,0.2026,0.2023,0.2018,0.2011,0.2006,0.2004,0.1999,0.1994,0.1995,0.1993,0.1993,0.1992,0.2009,0.2011,0.1992,0.1992,0.1992,0.1992,0.1992,0.1992,0.2042,0.2034,0.2033,0.2024,0.2022,0.2015,0.2013,0.201,0.2007,0.1999,0.1994,0.1993,0.1991,0.1985,0.1979,0.1979,0.1976,0.1973,0.1973,0.1989,0.1991,0.1993,0.1995,0.1972,0.1972,0.1956,0.1956,0.1955]}]]